Regional Weather Roundup
Issued by NWS Nashville, TN

Current Version | Previous Version | Text Only | Print | Product List | Glossary On
Versions: 1 2 3 4 5 6 7 8 9 10 11 12 13 14 15 16 17 18 19 20 21 22 23 24 25 26 27 28
000
ASUS44 KOHX 260710
RWROHX
MIDDLE TENNESSEE HOURLY WEATHER ROUNDUP
NATIONAL WEATHER SERVICE NASHVILLE TN
200 AM CDT SUN MAR 26 2017

NOTE: "FAIR" INDICATES FEW OR NO CLOUDS BELOW 12,000 FEET WITH
NO SIGNIFICANT WEATHER AND/OR OBSTRUCTIONS TO VISIBILITY.

* THESE REPORTS ARE NOT UNDER NWS QUALITY CONTROL AND MAY NOT
  REPORT WEATHER SUCH AS PRECIPITATION AND FOG.


TNZ005>011-023>034-057-059-062>066-078-080-260800
...NORTHERN MIDDLE TENNESSEE...

CITY           SKY/WX    TMP DP  RH WIND       PRES   REMARKS
CLARKSVILLE    MOCLDY    59  54  83 S7        29.94F
CROSSVILLE     RAIN      56  54  93 VRB5      30.05F FOG
GALLATIN       MOCLDY    57  55  94 SE5       30.02F
NASHVILLE      CLOUDY    58  56  93 E3        29.98F
PORTLAND       CLOUDY    57  55  94 S7G13     29.98F
SMYRNA         LGT RAIN  57  56  96 E3        29.99F
SPARTA         MOCLDY    57  55  94 SE5       30.00F
SPRINGFIELD    CLOUDY    59  57  94 S7        29.95F
WEST NASHVILLE CLOUDY    57  57 100 E3        29.97F
$$
TNZ056-058-060-061-075>077-079-093>097-260800
...SOUTHERN MIDDLE TENNESSEE...

CITY           SKY/WX    TMP DP  RH WIND       PRES   REMARKS
COLUMBIA       CLOUDY   N/A N/A N/A S6        29.96R
FAYETTEVILLE   MOCLDY    57  55  94 S10       30.00S
MCMINNVILLE    CLOUDY    57  57 100 CALM      30.01F
SHELBYVILLE    MOCLDY   N/A N/A N/A MISG      29.99F
TULLAHOMA      PTCLDY    55  55 100 SE7       30.00F
WINCHESTER     CLEAR     57  54  88 SE12      30.01F
$$


...KEY TO REMARKS...
VSB - VISIBILITY IN MILES
WCI - WIND CHILL INDEX
HX  - HEAT INDEX





USA.gov is the U.S. government's official web portal to all federal, state and local government web resources and services.